Zurück zum Katalog

CZ-4B SEP MOTOR COVER

LostSSO
NORAD 61937·DEBRIS·🇨🇳 China
Dieser Satellitenname wurde noch nicht durch offizielle Quellen bestätigt.

Gestartet Nov 13, 2024 von Taiyuan Satellite Launch Center

Loading…

Nächste Überflüge (nächste 24 Stunden)

TLE

VeraltetSource: Space-Track

Epoche: Dec 4, 2024, 14:52 UTC

1 61937U 24208B   24339.61984667  .00005938  00000-0  68066-3 0  9994
2 61937  97.9895 344.2662 0042659 126.0176 234.5004 14.85629148  3077

Verfolge CZ-4B SEP MOTOR COVER in Echtzeit mit AllMySat

Download on the App Store